Location: Del Amo
(33.8464°N, 118.2104°W)
Time: 03:15:23
(UTC+00:00)

SR - Pass Details

Date: 25 September 2024
Orbit: 578 x 855 km, 66.7° (Epoch: 02 October)

Event Time Altitude Azimuth Distance (km) Brightness Sun altitude
Rises 03:26:39 0° 340° (NNW) 3,010 ? -21.6°
Reaches altitude 10° 03:28:58 10° 346° (NNW) 2,136 ? -22.1°
Enters shadow 03:33:26 47° 52° (NE) 953 ? -23.0°
Maximum altitude 03:33:41 48° 61° (ENE) 951 - -23.0°
Drops below altitude 10° 03:38:45 10° 135° (SE) 2,304 - -24.0°
Sets 03:41:19 0° 141° (SE) 3,271 - -24.5°
